1362441630927,0.850995
1362441690927,0.842479
1362441750927,0.849392
1362441810927,0.891423
1362441870927,0.852117
1362441930927,0.852042
1362441990927,0.855702
1362442050927,0.851358
1362442110927,0.859213
1362442170927,0.853545
1362442230927,0.849140
1362442290927,0.851819
1362442350927,0.853967
1362442410927,0.857724
1362442470927,0.853027
1362442530927,0.859726
1362442590927,0.862471
1362442650927,0.852979
1362442710927,0.853390
1362442770927,0.859354
1362442830927,0.864389
1362442890927,0.863495
1362442950927,0.853808
1362443010927,0.860040
1362443070927,0.859112
1362443130927,0.854558
1362443190927,0.853321
1362443250927,0.858509
1362443310927,0.857040
1362443370927,0.859021
1362443430927,0.856154
1362443490927,0.867413
1362443550927,0.853927
1362443610927,0.862630
1362443670927,0.858085
1362443730927,0.853492
1362443790927,0.860140
1362443850927,0.852307
1362443910927,0.862943
1362443970927,0.857185
1362444030927,0.857937
1362444090927,0.862334
1362444150927,0.863959
1362444210927,0.859703
1362444270927,0.862818
1362444330927,0.858182
1362444390927,0.863298
1362444450927,0.852839
1362444510927,0.856648
1362444570927,0.858139
1362444630927,0.853884
1362444690927,0.849337
1362444750927,0.861697
1362444810927,0.855555
1362444870927,0.852141
1362444930927,0.861510
1362444990927,0.851549
1362445050927,0.852622
1362445110927,0.857668
1362445170927,0.848929
1362445230940,0.860657
1362445290940,0.858462
1362445350940,0.866754
1362445410940,0.856265
1362445470940,0.852384
1362445530940,0.851955
1362445590940,0.861013
1362445650940,0.854605
1362445710940,0.847037
1362445770940,0.853335
1362445830940,0.851835
1362445890940,0.855990
1362445950940,0.847061
1362446010940,0.860958
1362446070940,0.852866
1362446130940,0.856479
1362446190940,0.847560
1362446250940,0.853326
1362446310940,0.849758
1362446370940,0.848448
1362446430940,0.852970
1362446490940,0.851242
1362446550940,0.852046
1362446610940,0.849229
1362446670940,0.856240
1362446730940,0.849269
1362446790940,0.851980
1362446850940,0.843004
1362446910940,0.849237
1362446970940,0.850261
1362447030940,0.850801
1362447090940,0.845427
1362447150940,0.851569
1362447210940,0.851859
1362447270940,0.850600
1362447330940,0.858904
1362447390940,0.847034
1362447450940,0.846887
1362447510940,0.851044
1362447570940,0.852011
1362447630940,0.856210
1362447690940,0.856603
1362447750940,0.857036
1362447810940,0.851364
1362447870940,0.852829
1362447930940,0.850497
1362447990940,0.854521
1362448050940,0.851584
1362448110940,0.851017
1362448170940,0.854037
1362448230940,0.855340
1362448290940,0.850500
1362448350940,0.856474
1362448410940,0.854946
1362448470940,0.859416
1362448530940,0.862292
1362448590940,0.857652
1362448650940,0.854100
1362448710940,0.859216
1362448770940,0.861128
1362448830953,0.857241
1362448890953,0.863476
1362448950953,0.859221
1362449010953,0.852414
1362449070953,0.854291
1362449130953,0.858382
1362449190953,0.846387
1362449250953,0.856001
1362449310953,0.852387
1362449370953,0.852540
1362449430953,0.853115
1362449490953,0.852179
1362449550953,0.855570
1362449610953,0.839308
1362449670953,0.852304
1362449730953,0.859298
1362449790953,0.850564
1362449850953,0.855904
1362449910953,0.846929
1362449970953,0.855578
1362450030953,0.848427
1362450090953,0.856838
1362450150953,0.855179
1362450210953,0.850500
1362450270953,0.842910
1362450330953,0.853028
1362450390953,0.855955
1362450450953,0.846105
1362450510953,0.850666
1362450570953,0.845764
1362450630953,0.851600
1362450690953,0.848882
1362450750953,0.839738
1362450810953,0.845352
1362450870953,0.846865
1362450930953,0.845962
1362450990953,0.851840
1362451050953,0.848448
1362451110953,0.844488
1362451170953,0.848459
1362451230953,0.848991
1362451290953,0.843973
1362451350953,0.848504
1362451410953,0.848471
1362451470953,0.846922
1362451530953,0.850155
1362451590953,0.845709
1362451650953,0.852642
1362451710953,0.855339
1362451770953,0.845807
1362451830953,0.846860
1362451890953,0.846929
1362451950953,0.853937
1362452010953,0.850074
1362452070953,0.852635
1362452130953,0.860724
1362452190953,0.850139
1362452250953,0.860821
1362452310953,0.850113
1362452370953,0.860688
1362452430966,0.855268
1362452490966,0.864795
1362452550966,0.858201
1362452610966,0.861624
1362452670966,0.854306
1362452730966,0.853967
1362452790966,0.842352
1362452850966,0.854842
1362452910966,0.845922
1362452970966,0.854121
1362453030966,0.862571
1362453090966,0.851021
1362453630966,0.848320
1362453690966,0.849315
1362453750966,0.845344
1362453810966,0.849644
1362453870966,0.843297
1362453930966,0.846776
1362453990966,0.855287
1362454050966,0.848959
1362454110966,0.843581
1362454170966,0.843893
1362454230966,0.850456
1362454290966,0.841658
1362454350966,0.847405
1362454410966,0.847706
1362454470966,0.851726
1362454530966,0.847941
1362454590966,0.851558
1362454650966,0.851349
1362454710966,0.851301
1362454770966,0.849631
1362454830966,0.853814
1362454890966,0.846865
1362454950966,0.848734
1362455010966,0.849831
1362455070966,0.843674
1362455130966,0.850004
1362455190966,0.841790
1362455250966,0.854176
1362455310966,0.851948
1362455370966,0.852422
1362455430966,0.853858
1362455490966,0.857800
1362455550966,0.862491
1362455610966,0.843862
1362455670966,0.851157
1362455730966,0.853387
1362455790966,0.851977
1362455850966,0.853444
1362455910966,0.854706
1362455970966,0.851653
1362456030979,0.847811
1362456090979,0.854566
1362456150979,0.846478
1362456210979,0.854459
1362456270979,0.850078
1362456330979,0.856485
1362456390979,0.854258
1362456450979,0.848876
1362456510979,0.850097
1362456570979,0.850468
1362456630979,0.857319
1362456690979,0.855064
1362456750979,0.860458
1362456810979,0.856163
1362456870979,0.856877
1362456930979,0.848459
1362456990979,0.855797
1362457050979,0.848797
1362457110979,0.851384
1362457170979,0.851678
1362457230979,0.852693
1362457290979,0.854731
1362457350979,0.852032
1362457410979,0.853734
1362457470979,0.852784
1362457530979,0.847416
1362457590979,0.856827
1362457650979,0.850313
1362457710979,0.855864
1362457770979,0.856353
1362457830979,0.862169
1362457890979,0.853500
1362457950979,0.857149
1362458010979,0.856193
1362458070979,0.841138
1362458130979,0.851964
1362458190979,0.849372
1362458250979,0.846574
1362458310979,0.849830
1362458370979,0.850114
1362458430979,0.853707
1362458490979,0.849628
1362458550979,0.840293
1362458610979,0.852357
1362458670979,0.854136
1362458730979,0.850662
1362458790979,0.848085
1362458850979,0.846368
1362458910979,0.843395
1362458970979,0.851066
1362459030979,0.846784
1362459090979,0.853077
1362459150979,0.850224
1362459210979,0.851497
1362459270979,0.847506
1362459330979,0.846137
1362459390979,0.845496
1362459450979,0.844101
1362459510979,0.845572
1362459570979,0.851166
1362459630992,0.843077
1362459690992,0.856464
1362459750992,0.860835
1362459810992,0.854132
1362459870992,0.847533
1362459930992,0.853714
1362459990992,0.854494
1362460050992,0.856321
1362460110992,0.850418
1362460170992,0.844974
1362460230992,0.848138
1362460290992,0.849090
1362460350992,0.843309
1362460410992,0.846385
1362460470992,0.850805
1362460530992,0.844582
1362460590992,0.852817
1362460650992,0.844459
1362460710992,0.847683
1362460770992,0.855206
1362460830992,0.859781
1362460890992,0.859979
1362460950992,0.860839
1362461010992,0.856055
1362461070992,0.861909
1362461130992,0.862425
1362461190992,0.863871
1362461250992,0.868220
1362461310992,0.868343
1362461370992,0.865647
1362461430992,0.862223
1362461490992,0.862162
1362461550992,0.866091
1362461610992,0.858686
1362461670992,0.855621
1362461730992,0.862658
1362461790992,0.854104
1362461850992,0.856039
1362461910992,0.856051
1362461970992,0.856344
1362462030992,0.855851
1362462090992,0.858404
1362462150992,0.865141
1362462210992,0.860916
1362462270992,0.848960
1362462330992,0.859417
1362462390992,0.864849
1362462450992,0.855917
1362462510992,0.859585
1362462570992,0.865990
1362462630992,0.860322
1362462690992,0.859556
1362462750992,0.857829
1362462810992,0.858631
1362462870992,0.861211
1362462930992,0.871393
1362462990992,0.866979
1362463050992,0.872530
1362463110992,0.873864
1362463170992,0.875448
1362463231005,0.884281
1362463291005,0.891909
1362463351005,0.892214
1362463411005,0.901774
1362463471005,0.896381
1362463531005,0.890111
1362463591005,0.894085
1362463651005,0.886251
1362463711005,0.893440
1362463771005,0.891173
1362463831005,0.891077
1362463891005,0.897159
1362463951005,0.886069
1362464011005,0.893930
1362464071005,0.880721
1362464131005,0.881507
1362464191005,0.881171
1362464251005,0.874654
1362464311005,0.863706
1362464371005,0.874241
1362464431005,0.873515
1362464491005,0.876192
1362464551005,0.871404
1362464611005,0.870476
1362464671005,0.872022
1362464731005,0.861782
1362464791005,0.862038
1362464851005,0.863278
1362464911005,0.870008
1362464971005,0.865943
1362465031005,0.858484
1362465091005,0.867413
1362465151005,0.862654
1362465211005,0.856641
1362465271005,0.860591
1362465331005,0.856909
1362465391005,0.862863
1362465451005,0.863840
1362465511005,0.852074
1362465571005,0.861838
1362465631005,0.852827
1362465691005,0.855285
1362465751005,0.860315
1362465811005,0.856706
1362465871005,0.863658
1362465931005,0.853398
1362477811055,0.855215
1362477871055,0.864105
1362477931055,0.861226
1362477991055,0.867426
1362478051055,0.855606
1362478111055,0.861667
1362478171055,0.865376
1362478231055,0.857361
1362478291055,0.858564
1362478351055,0.855737
1362478411055,0.865850
1362478471055,0.853111
1362478531055,0.852377
1362478591055,0.859517
1362478651055,0.851841
1362478711055,0.852554
1362478771055,0.855833
1362478831055,0.858593
1362478891055,0.855598
1362478951055,0.867145
1362479011055,0.863225
1362479071055,0.855029
1362479131055,0.859470
1362479191055,0.851963
1362479251055,0.856825
1362479311055,0.858357
1362479371055,0.856847
1362479431055,0.864214
1362479491055,0.859060
1362479551055,0.870994
1362479611055,0.857730
1362479671055,0.862079
1362479731055,0.853975
1362479791055,0.860809
1362479851055,0.865634
1362479911055,0.860614
1362479971055,0.867800
1362480031055,0.855805
1362480091055,0.857716
1362480151055,0.854180
1362480211055,0.861057
1362480271055,0.856648
1362480331055,0.862014
1362480391055,0.861709
1362480451055,0.860758
1362480511055,0.858154
1362480571055,0.860455
1362480631055,0.858334
1362480691055,0.856507
1362480751055,0.852041
1362480811055,0.851329
1362480871055,0.853662
1362480931055,0.855804
1362480991055,0.857079
1362481051055,0.851931
1362481111055,0.852061
1362481171055,0.858341
1362481231068,0.849900
1362481291068,0.855038
1362481351068,0.858669
1362481411068,0.858576
1362481471068,0.856876
1362481531068,0.856939
1362481591068,0.860348
1362481651068,0.870760
1362481711068,0.860440
1362481771068,0.853870
1362481831068,0.866640
1362481891068,0.861693
1362481951068,0.865083
1362482011068,0.866139
1362482071068,0.859564
1362482131068,0.874242
1362482191068,0.869076
1362482251068,0.875318
1362482311068,0.876534
1362482371068,0.871398
1362482431068,0.885473
1362482491068,0.876066
1362482551068,0.871673
1362482611068,0.881639
1362482671068,0.864245
1362482731068,0.861632
1362482791068,0.856084
1362482851068,0.863111
1362482911068,0.857360
1362482971068,0.862104
1362483031068,0.859183
1362483091068,0.860696
1362483151068,0.858769
1362483211068,0.849188
1362483271068,0.860251
1362483331068,0.861309
1362483391068,0.856331
1362483451068,0.861331
1362483511068,0.857306
1362483571068,0.850566
1362483631068,0.855266
1362483691068,0.858833
1362483751068,0.863771
1362483811068,0.864916
1362483871068,0.854640
1362483931068,0.852873
1362483991068,0.854184
1362484051068,0.857717
1362484111068,0.856755
1362484171068,0.857078
1362484231068,0.850731
1362484291068,0.843970
1362484351068,0.858967
1362484411068,0.842046
1362484471068,0.863198
1362484531068,0.856346
1362484591068,0.847003
1362484651068,0.853935
1362484711068,0.860999
1362484771068,0.848289
1362484831082,0.847015
1362484891082,0.854124
1362484951082,0.852052
1362485011082,0.854321
1362485071082,0.855007
1362485131082,0.860095
1362485191082,0.854883
1362485251082,0.848115
1362485311082,0.851057
1362485371082,0.858510
1362485431082,0.853877
1362485491082,0.852333
1362485551082,0.856163
1362485611082,0.855803
1362485671082,0.858119
1362485731082,0.855234
1362485791082,0.858801
1362485851082,0.844116
1362485911082,0.853833
1362485971082,0.864712
1362486031082,0.844039
1362486091082,0.858300
1362486151082,0.855483
1362486211082,0.860155
1362486271082,0.855931
1362486331082,0.853544
1362486391082,0.852032
1362486451082,0.856708
1362486511082,0.857042
1362486571082,0.851455
1362486631082,0.858190
1362486691082,0.849446
1362486751082,0.860602
1362486811082,0.858781
1362486871082,0.862119
1362486931082,0.860320
1362486991082,0.866271
1362487051082,0.860059
1362487111082,0.857151
1362487171082,0.858661
1362487231082,0.855563
1362487291082,0.860830
1362487351082,0.860027
1362487411082,0.854866
1362487471082,0.853164
1362487531082,0.864175
1362487591082,0.863171
1362487651082,0.879483
1362487711082,0.853916
1362487771082,0.857145
1362487831082,0.856203
1362487891082,0.858349
1362487951082,0.858908
1362488011082,0.856915
1362488071082,0.859258
1362488131082,0.852401
1362488191082,0.852626
1362488251082,0.862602
1362488311082,0.862387
1362488371082,0.848824
1362488431095,0.858097
1362488491095,0.859035
1362488551095,0.853089
1362488611095,0.857057
1362488671095,0.859346
1362488731095,0.861564
1362488791095,0.861222
1362488851095,0.860653
1362488911095,0.857093
1362488971095,0.860195
1362489031095,0.852162
1362489091095,0.854894
1362489151095,0.859740
1362489211095,0.858240
1362489271095,0.862952
1362489331095,0.853060
1362489391095,0.854892
1362489451095,0.863993
1362489511095,0.862001
1362489571095,0.860949
1362489631095,0.860717
1362489691095,0.857871
1362489751095,0.867856
1362489811095,0.870938
1362489871095,0.864547
1362489931095,0.868538
1362489991095,0.880541
1362490051095,0.880819
1362490111095,0.884398
1362490171095,0.884508
1362490231095,0.890878
1362490291095,0.890747
1362490351095,0.890814
1362490411095,0.888590
1362490471095,0.895324
1362490531095,0.885982
1362490591095,0.892863
1362490651095,0.897309
1362490711095,0.895121
1362490771095,0.897052
1362490831095,0.888241
1362490891095,0.895047
1362490951095,0.891138
1362491011095,0.878728
1362491071095,0.883524
1362491131095,0.883344
1362491191095,0.878985
1362491251095,0.883775
1362491311095,0.875687
1362491371095,0.872576
1362491431095,0.880543
1362491491095,0.873206
1362491551095,0.868792
1362491611095,0.873801
1362491671095,0.873472
1362491731095,0.865647
1362491791095,0.879573
1362491851095,0.868847
1362491911095,0.877624
1362491971095,0.875080
1362492031096,0.872867
1362492091096,0.867525
1362492151096,0.871023
1362492211096,0.867465
1362492271096,0.861888
1362492331096,0.863066
1362492391096,0.872046
1362492451096,0.864051
1362492511096,0.860168
1362492571096,0.864506
1362492631096,0.870647
1362492691096,0.869303
1362492751096,0.862959
1362492811096,0.864055
1362492871096,0.867845
1362492931096,0.870242
1362492991096,0.863659
1362493051096,0.867778
1362493111096,0.869846
1362493171096,0.868853
1362493231096,0.871715
1362493291096,0.865493
1362493351096,0.860633
1362493411096,0.860960
1362493471096,0.854179
1362493531096,0.869720
1362493591096,0.871553
1362493651096,0.863604
1362493711096,0.861872
1362493771096,0.868649
1362493831096,0.868302
1362493891096,0.866970
1362493951096,0.861194
1362494011096,0.868769
1362494071096,0.867937
1362494131096,0.859829
1362494191096,0.859303
1362494251096,0.866948
1362494311096,0.863781
1362494371096,0.865310
1362494431096,0.864745
1362494491096,0.862818
1362494551096,0.860495
1362494611096,0.862073
1362494671096,0.861537
1362494731096,0.864270
1362494791096,0.861443
1362494851096,0.867085
1362494911096,0.856391
1362494971096,0.867382
1362495031096,0.861929
1362495091096,0.860227
1362495151096,0.854627
1362495211096,0.868522
1362495271096,0.857197
1362495331096,0.868101
1362495391096,0.858019
1362495451096,0.860335
1362495511096,0.865738
1362495571096,0.868877
1362495631109,0.869708
1362495691109,0.867476
1362495751109,0.869060
1362495811109,0.864839
1362495871109,0.867044
1362495931109,0.873619
1362495991109,0.865160
1362496051109,0.863947
1362496111109,0.868707
1362496171109,0.862530
1362496231109,0.864288
1362496291109,0.866382
1362496351109,0.865391
1362496411109,0.867033
1362496471109,0.859890
1362496531109,0.862158
1362496591109,0.866548
1362496651109,0.867259
1362496711109,0.859425
1362496771109,0.862325
1362496831109,0.861901
1362496891109,0.866265
1362496951109,0.863576
1362497011109,0.864469
1362497071109,0.870257
1362497131109,0.861115
1362497191109,0.862514
1362497251109,0.863102
1362497311109,0.867119
1362497371109,0.863658
1362497431109,0.863056
1362497491109,0.859897
1362497551109,0.864980
1362497611109,0.858241
1362497671109,0.865320
1362497731109,0.863073
1362497791109,0.862898
1362497851109,0.864928
1362497911109,0.862807
1362497971109,0.866080
1362498031109,0.866431
1362498091109,0.871942
1362498151109,0.866922
1362498211109,0.860761
1362498271109,0.868808
1362498331109,0.860708
1362498391109,0.856215
1362498451109,0.862274
1362498511109,0.868763
1362498571109,0.859099
1362498631109,0.864017
1362498691109,0.866343
1362498751109,0.861478
1362498811109,0.873813
1362498871109,0.880081
1362498931109,0.884003
1362498991109,0.884808
1362499051109,0.884384
1362499111109,0.888303
1362499171109,0.889991
1362499231122,0.884420
1362499291122,0.885714
1362499351122,0.881933
1362499411122,0.887671
1362499471122,0.883756
1362499531122,0.885077
1362499591122,0.885742
1362499651122,0.878866
1362499711122,0.872062
1362499771122,0.867996
1362499831122,0.879538
1362499891122,0.871679
1362499951122,0.872487
1362500011122,0.873539
1362500071122,0.869370
1362500131122,0.868242
1362500191122,0.874832
1362500251122,0.869463
1362500311122,0.866150
1362500371122,0.864700
1362500431122,0.865869
1362500491122,0.875178
1362500551122,0.867600
1362500611122,0.865822
1362500671122,0.878018
1362500731122,0.875433
1362500791122,0.869446
1362500851122,0.866523
1362500911122,0.865660
1362500971122,0.869124
1362501031122,0.867858
1362501091122,0.865134
1362501151122,0.864505
1362501211122,0.873022
1362501271122,0.864585
1362501331122,0.871270
1362501391122,0.870702
1362501451122,0.865007
1362501511122,0.863167
1362501571122,0.873384
1362501631122,0.870613
1362501691122,0.878924
1362501751122,0.865450
1362501811122,0.875544
1362501871122,0.864743
1362501931122,0.862244
1362501991122,0.862526
1362502051122,0.868425
1362502111122,0.869467
1362502171122,0.870084
1362502231122,0.864952
1362502291122,0.864620
1362502351122,0.866357
1362502411122,0.868887
1362502471122,0.869703
1362502531122,0.865191
1362502591122,0.870557
1362502651122,0.864586
1362502711122,0.867888
1362502771122,0.866976
1362502831135,0.867733
1362502891135,0.878090
1362502951135,0.871141
1362503011135,0.870067
1362503071135,0.873972
1362503131135,0.868912
1362503191135,0.870336
1362503251135,0.879212
1362503311135,0.866580
1362503371135,0.868782
1362503431135,0.874175
1362503491135,0.868983
1362503551135,0.866873
1362503611135,0.865451
1362503671135,0.868749
1362503731135,0.869240
1362503791135,0.869517
1362503851135,0.868999
1362503911135,0.866913
1362503971135,0.871445
1362504031135,0.879482
1362504091135,0.870935
1362504151135,0.867381
1362504211135,0.869932
1362504271135,0.873029
1362504331135,0.868107
1362504391135,0.869978
1362504451135,0.877520
1362504511135,0.865642
1362504571135,0.873253
1362504631135,0.864074
1362504691135,0.868883
1362504751135,0.874617
1362504811135,0.879748
1362504871135,0.880716
1362504931135,0.877059
1362504991135,0.872783
1362505051135,0.868720
1362505111135,0.867771
1362505171135,0.874074
1362505231135,0.876228
1362505291135,0.869129
1362505351135,0.868536
1362505411135,0.876021
1362505471135,0.874639
1362505531135,0.870821
1362505591135,0.874267
1362505651135,0.873971
1362505711135,0.866161
1362505771135,0.872248
1362505831135,0.881889
1362505891135,0.869686
1362505951135,0.871548
1362506011135,0.868580
1362506071135,0.873516
1362506131135,0.876087
1362506191135,0.865777
1362506251135,0.868294
1362506311135,0.873148
1362506371135,0.874928
1362506431148,0.863914
1362506491148,0.870760
1362506551148,0.878913
1362506611148,0.871710
1362506671148,0.871182
1362506731148,0.882440
1362506791148,0.868144
1362506851148,0.874389
1362506911148,0.875212
1362506971148,0.878009
1362507031148,0.878124
1362507091148,0.872809
1362507151148,0.872982
1362507211148,0.869526
1362507271148,0.877919
1362507331148,0.881478
1362507391148,0.875273
1362507451148,0.882439
1362507511148,0.883184
1362507571148,0.876871
1362507631148,0.883319
1362507691148,0.875874
1362507751148,0.880262
1362507811148,0.878105
1362507871148,0.876965
1362507931148,0.872107
1362507991148,0.879353
1362508051148,0.877688
1362508111148,0.879515
1362508171148,0.871036
1362508231148,0.874623
1362508291148,0.876085
1362508351148,0.875606
1362508411148,0.878345
1362508471148,0.873733
1362508531148,0.875805
1362508591148,0.878932
1362508651148,0.885809
1362508711148,0.882754
1362508771148,0.879640
1362508831148,0.879489
1362508891148,0.875652
1362508951148,0.875256
1362509011148,0.874583
1362509071148,0.882439
1362509131148,0.882271
1362509191148,0.880837
1362509251148,0.876726
1362509311148,0.879837
1362509371148,0.867684
1362509431148,0.877374
1362509491148,0.877927
1362509551148,0.878333
1362509611148,0.874120
1362509671148,0.871426
1362509731148,0.878468
1362509791148,0.883358
1362509851148,0.881351
1362509911148,0.874545
1362509971148,0.869807
1362510031160,0.873667
1362510091160,0.875483
1362510151160,0.878953
1362510211160,0.872588
1362510271160,0.879386
1362510331160,0.874616
1362510391160,0.878970
1362510451160,0.871963
1362510511160,0.873651
1362510571160,0.878897
1362510631160,0.872526
1362510691160,0.877512
1362510751160,0.877164
1362510811160,0.876034
1362510871160,0.878664
1362510931160,0.874769
1362510991160,0.877595
1362511051160,0.874121
1362511111160,0.878055
1362511171160,0.875942
1362511231160,0.871604
1362511291160,0.876022
1362511351160,0.879125
1362511411160,0.875946
1362511471160,0.878589
1362511531160,0.879753
1362511591160,0.875185
1362511651160,0.883884
1362511711160,0.890611
1362511771160,0.880098
1362511831160,0.882789
1362511891160,0.884577
1362511951160,0.879871
1362512011160,0.880253
1362512071160,0.886031
1362512131160,0.880476
1362512191160,0.887431
1362512251160,0.887169
1362512311160,0.891699
1362512371160,0.892704
1362512431160,0.883795
1362512491160,0.894343
1362512551160,0.892207
1362512611160,0.896448
1362512671160,0.895049
1362512731160,0.892086
1362512791160,0.887208
1362512851160,0.895196
1362512911160,0.900256
1362512971160,0.891321
1362513031160,0.896522
1362513091160,0.889608
1362513151160,0.888805
1362513211160,0.888763
1362513271160,0.900654
1362513331160,0.892087
1362513391160,0.892267
1362513451160,0.887841
1362513511160,0.885813
1362513571160,0.888563
1362513631173,0.892754
1362513691173,0.890966
1362513751173,0.890672
1362513811173,0.894594
1362513871173,0.889644
1362513931173,0.882694
1362513991173,0.889477
1362514051173,0.887530
1362514111173,0.892827
1362514171173,0.894365
1362514231173,0.886524
1362514291173,0.887195
1362514351173,0.882722
1362514411173,0.889761
1362514471173,0.893558
1362514531173,0.889410
1362514591173,0.883369
1362514651173,0.883928
1362514711173,0.887500
1362514771173,0.883510
1362514831173,0.877549
1362514891173,0.884287
1362514951173,0.880144
1362515011173,0.879236
1362515071173,0.882692
1362515131173,0.881167
1362515191173,0.882827
1362515251173,0.883334
1362515311173,0.877978
1362515371173,0.881621
1362515431173,0.876652
1362515491173,0.880432
1362515551173,0.880515
1362515611173,0.888369
1362515671173,0.893435
1362515731173,0.889071
1362515791173,0.881421
1362515851173,0.880840
1362515911173,0.882550
1362515971173,0.875127
1362516031173,0.887546
1362516091173,0.897704
1362516151173,0.898667
1362516211173,0.913903
1362516271173,0.921832
1362516331173,0.913919
1362516391173,0.925172
1362516451173,0.915743